Location: Étouvelles
(49.5207°N, 3.5808°E)
Time: 08:57:51
(UTC+00:00)

Cosmos 2315 Rocket - Pass Details

Date: 03 February 2023
Orbit: 965 x 1002 km, 82.9° (Epoch: 22 March)

Event Time Altitude Azimuth Distance (km) Brightness Sun altitude
Rises 18:48:17 0° 163° (SSE) 3,692 6.9 -20.3°
Reaches altitude 10° 18:50:55 10° 156° (SSE) 2,752 6.1 -20.7°
Maximum altitude 18:56:46 41° 89° (E) 1,406 4.3 -21.7°
Drops below altitude 10° 19:02:41 10° 21° (NNE) 2,785 6.2 -22.6°
Sets 19:05:22 0° 15° (NNE) 3,741 6.9 -23.1°
